CAPE
0 0 0 0 0 0 0 0 0 0 404 516 450 416 429 443 674 622 810 976 1126 920 534 356 438 544 387 392 1264 774 644 1 0 0 0 0 0 0 0 0 0 0 0 0 351 421 487 626 776 878 922 949 1000 1005 1133 1278 1292 1067 1091 1172 1212 1318 1446 1424 1349 1176 1240 1331 1354 1342 1168 1291 1382 1426 1546 1634 1852 2053 2334 2801 2983 2714 2621 1988 1387 1170
0 0 0 0 0 0 0 0 0 0 614 550 454 368 387 360 437 673 852 785 989 789 500 476 398 469 344 494 625 911 348 6 4 0 0 0 0 0 0 0 0 0 0 0 339 390 488 556 720 960 1035 1200 1178 1224 1295 1469 1531 1280 1168 1240 1390 1535 1446 1120 1096 1245 1152 1236 1274 1221 1078 1178 1336 1458 1513 1577 1903 2126 2337 2706 3060 2784 2484 1909 1295 1656
0 0 0 0 0 0 0 0 0 141 654 490 438 266 195 393 935 943 837 774 1004 915 683 363 422 407 393 663 892 1021 1372 1152 1018 638 123 0 0 0 0 0 0 0 0 0 304 466 491 532 747 972 1072 1126 1193 1258 1306 1552 1576 1401 1300 1373 1525 1560 1407 1064 1174 1305 1092 999 1153 1132 1112 984 1171 1291 1317 1645 1899 2107 2197 2598 2835 2923 2651 2335 1667 1904
0 0 0 0 0 0 0 0 0 0 398 403 339 254 275 456 575 650 850 977 942 1031 690 361 478 350 417 547 740 1584 1566 1310 1434 1395 838 32 0 0 0 0 0 0 0 94 441 493 540 593 700 863 1037 1188 1215 1243 1278 1582 1569 1576 1670 1510 1546 1625 1434 1236 1845 1784 1077 937 1031 823 959 946 1035 1032 1186 1627 1924 2042 2227 2454 2916 2905 2792 2730 2358 2649
0 0 0 0 0 0 0 0 0 0 133 506 417 330 442 689 585 637 745 770 817 596 540 468 402 310 302 488 665 1129 1688 1462 1480 491 683 458 448 228 0 0 0 0 0 73 456 501 589 630 681 758 896 1105 1262 1227 1372 1550 1543 1696 1707 1653 1606 1656 1529 1506 2740 2128 1084 1461 1096 944 669 968 1143 970 1094 1578 1797 2022 2455 2603 2824 2842 3061 3098 2857 3271
0 0 0 0 0 0 0 0 0 0 0 556 594 533 566 724 706 855 737 761 710 598 472 329 281 311 315 478 656 838 954 1036 1510 746 450 489 376 390 16 0 0 0 0 12 433 521 607 672 700 730 920 1160 1250 1336 1415 1470 1541 1709 1769 1776 1725 1783 1770 1902 2662 1901 1325 1442 1124 889 834 794 922 986 1242 1529 1697 1903 2249 2564 2657 2849 3057 3275 2929 2697
0 0 0 0 0 0 0 0 0 0 0 309 589 490 837 930 894 781 728 744 553 513 452 335 51 10 510 600 683 798 792 711 1098 1070 948 839 550 485 89 0 0 0 0 2 325 614 740 802 806 827 1000 1186 1314 1453 1498 1465 1581 1688 1812 1830 1845 2051 1993 2086 2390 2310 2313 1790 1166 876 863 831 885 912 1165 1340 1544 1662 2018 2413 2519 2663 2973 3067 3036 2633
0 0 0 0 0 0 0 0 0 2 3 0 267 551 972 1072 889 818 770 558 581 775 600 453 523 226 248 523 696 736 743 664 945 1304 1090 717 607 538 392 13 0 0 0 0 322 727 852 934 946 946 1075 1245 1396 1548 1594 1655 1713 1697 1860 1888 1958 2332 2244 2231 2472 2435 2337 1990 1186 834 754 797 898 757 1022 1195 1382 1544 1844 2141 2244 2312 2701 2795 2941 2825
0 0 0 0 0 0 0 0 54 12 0 302 608 700 980 1015 985 882 734 560 592 522 388 453 669 138 167 310 613 749 709 654 686 868 995 842 669 565 501 117 0 0 0 3 220 780 913 1024 1035 1047 1180 1291 1402 1547 1641 1808 1778 1770 1947 2055 2142 2431 2215 2482 2464 2285 2380 2198 1274 884 1050 1241 734 795 995 1170 1371 1501 1774 1981 2092 2127 2494 2689 2837 2816
0 0 0 0 0 0 0 52 26 294 429 603 844 780 935 1056 1006 932 692 597 437 310 284 452 492 154 121 396 652 779 640 504 474 680 801 723 710 609 541 168 2 8 5 9 291 906 953 1064 1121 1172 1290 1393 1409 1433 1637 1808 1792 1838 2055 2203 2307 2456 2290 2512 2372 2333 2307 2432 1888 1314 1352 1149 1204 1594 1214 1075 1241 1381 1560 1857 2041 1914 2408 2520 2737 2874
0 0 0 0 0 0 11 10 21 276 490 765 875 1236 1097 1019 804 657 620 503 348 282 3 374 442 113 77 380 614 701 610 439 371 562 730 700 698 663 603 56 2 3 0 20 426 972 996 1064 1164 1237 1350 1434 1428 1420 1685 1768 1726 1872 2172 2314 2295 2450 2417 2448 2300 2264 2240 2308 1841 1492 1424 1218 1374 1492 1396 1010 941 1143 1369 1767 1835 1863 2112 2311 2828 2812
0 0 0 0 1 37 16 16 12 416 806 946 1070 1085 965 887 723 436 212 284 175 86 332 375 491 274 19 82 443 624 632 493 420 488 650 644 738 750 716 212 3 4 1 30 461 1001 1041 1103 1170 1230 1330 1391 1376 1379 1745 1741 1651 1896 2271 2318 2275 2464 2518 2391 2282 2342 2250 2147 2109 1740 1509 1364 1447 1408 1311 1188 986 1310 1321 1551 1701 1830 1961 2258 2757 2859
0 0 0 0 6 4 4 9 23 234 766 800 1064 821 611 571 271 37 292 236 59 6 561 671 502 331 98 6 359 506 569 600 509 507 628 616 718 792 771 307 38 4 1 76 514 829 978 1083 1150 1157 1236 1349 1375 1504 1762 1785 1666 1949 2299 2303 2245 2478 2540 2422 2295 2424 2423 2016 2152 2146 1576 1680 1655 1412 1292 1006 1147 1503 1295 1434 1562 1876 1904 2116 2354 2728
0 0 0 0 0 0 4 13 9 0 305 191 566 512 318 159 129 234 77 92 212 369 534 570 442 294 404 207 112 365 489 554 651 620 668 658 646 898 774 379 66 26 11 157 553 713 826 948 1029 1019 1101 1307 1402 1577 1774 1853 1848 2018 2319 2285 2235 2444 2555 2480 2363 2493 2544 2100 2223 2489 1766 1838 1842 1551 1350 1260 1312 1638 1358 1455 1635 1900 1874 2089 2243 2457
0 0 0 0 0 0 2 17 18 0 4 5 269 288 221 195 143 0 0 98 186 293 493 581 247 154 56 3 632 676 569 406 573 719 773 707 591 724 704 421 85 46 22 158 556 706 786 835 870 966 1058 1199 1552 1646 1808 1926 1940 2067 2267 2265 2250 2419 2578 2528 2477 2543 2561 2235 2376 2737 2175 1974 1859 1725 1706 1564 1596 1721 1686 1612 1785 1831 1809 1944 2427 2368
0 0 0 0 0 0 0 4 15 7 0 0 0 86 47 60 1 17 11 0 266 427 448 453 353 484 139 1031 872 724 720 643 546 698 840 736 599 603 569 479 310 62 49 193 500 650 751 806 801 847 934 1233 1701 1860 1904 1983 2021 2124 2174 2250 2210 2468 2574 2556 2622 2622 2584 2242 2457 3014 2411 2477 2147 2347 1947 2052 2602 1734 1982 2020 1900 1944 1918 1828 2392 2546
0 0 0 1 0 0 0 0 38 15 20 0 0 0 0 0 186 316 449 419 373 28 109 292 275 526 683 747 801 825 648 619 543 699 798 738 561 472 487 510 782 102 62 228 483 695 692 843 771 749 893 1277 1794 2025 2079 2052 2087 2154 2191 2217 2188 2479 2577 2511 2632 2749 2702 2373 2544 3209 2728 2664 2677 2314 1945 2021 2233 1784 1743 2276 1965 1921 2057 2001 2046 2408
1 18 24 5 1 0 0 0 7 12 25 0 0 0 0 101 214 148 144 198 114 0 2 379 445 413 280 228 844 943 886 664 650 722 756 720 505 356 385 572 817 454 59 74 337 681 757 805 773 718 1046 1331 1715 2011 2166 2165 2176 2220 2285 2236 2183 2443 2557 2502 2532 2775 2859 2664 2743 3190 3057 2699 2870 2403 1933 1982 2247 1872 1783 1736 2191 1888 2032 2051 1994 2023
3 5 1 0 2 4 0 0 32 36 20 15 0 0 0 0 143 204 12 75 57 42 43 10 155 375 399 356 606 946 917 833 770 747 721 677 527 322 393 747 803 414 192 26 213 481 652 813 802 731 1099 1361 1614 1910 2101 2224 2227 2344 2430 2353 2356 2423 2513 2463 2444 2641 2857 2806 2951 3098 3128 2824 2729 2642 2379 2093 2465 1917 1868 1716 2266 2128 2341 2177 2308 2589
32 22 4 12 17 21 3 0 40 11 15 2 0 0 0 0 100 37 22 164 0 67 35 42 4 38 60 284 627 806 941 871 884 872 784 810 647 390 472 809 784 377 178 149 50 279 474 662 772 742 1064 1292 1538 1747 2030 2163 2226 2419 2535 2634 2540 2538 2465 2499 2429 2563 2618 2818 3066 2993 3069 2936 2574 2632 2518 2222 2322 2189 1882 1992 2428 2354 2469 2362 2340 2625
7 26 28 31 10 4 2 0 13 18 25 24 10 0 0 0 0 0 0 84 29 25 0 178 4 1 520 576 695 654 768 914 923 883 896 919 807 628 656 816 799 559 134 104 96 332 360 425 549 629 851 1174 1395 1618 1916 2024 2161 2417 2532 2685 2647 2629 2456 2604 2454 2595 2574 2773 3038 2949 2909 2985 2640 2508 2524 2366 2107 2099 2008 2257 2472 2468 2417 2337 2184 2293
19 12 20 16 2 0 18 5 4 25 26 36 15 0 0 0 107 59 128 4 90 0 20 0 0 76 644 732 787 804 644 676 898 948 898 961 907 782 689 638 598 594 415 438 982 230 290 330 411 628 699 935 1147 1398 1792 1924 2074 2262 2438 2649 2610 2571 2435 2557 2512 2523 2586 2618 2906 2942 2661 2768 2691 2516 2360 2395 2218 2064 2112 2285 2335 2384 2336 2355 2248 2127
4 1 11 7 8 0 0 0 0 3 28 33 0 0 2 0 0 0 10 1 11 110 201 226 152 119 830 1017 818 804 712 910 931 745 901 965 991 830 538 1064 797 571 715 1212 1802 1490 112 54 132 331 550 878 1059 1288 1584 1810 1929 2099 2321 2470 2510 2456 2284 2370 2490 2405 2621 2602 2660 2810 2626 2530 2472 2493 2368 2180 2109 2181 2169 2125 2282 2153 2098 2257 2237 2122
772 1 10 20 3 0 0 0 0 3 14 15 8 9 0 4 9 0 0 0 7 160 12 0 45 285 1217 1176 914 920 769 833 1201 836 776 916 1041 811 666 962 938 909 830 834 822 898 1209 104 204 378 426 904 1120 1303 1562 1762 1855 1984 2216 2333 2357 2345 2253 2189 2334 2275 2468 2633 2555 2518 2526 2488 2387 2427 2490 2206 2064 2144 2083 2005 2226 2252 2049 2186 2172 2201
0 3 14 16 4 3 2 0 0 0 7 19 20 16 2 4 1 0 0 84 36 41 4 0 0 0 870 938 978 895 810 805 1166 1158 1010 974 997 873 689 750 811 928 734 437 661 906 985 390 112 202 486 696 971 1372 1569 1722 1776 1880 2113 2197 2233 2262 2307 2234 2230 2313 2257 2579 2665 2546 2294 2259 2364 2339 2389 2303 1994 1703 1829 1814 1909 2048 2114 1940 1972 1890
0 9 18 9 7 1 0 0 0 7 14 11 11 12 23 15 8 0 0 21 5 17 0 0 1 864 911 920 1022 916 840 780 940 1240 1143 1067 1144 1058 775 627 709 863 649 550 696 834 836 805 287 151 360 746 831 980 1377 1722 1725 1806 1917 2130 2150 2204 2245 2346 2278 2357 2235 2354 2471 2516 2312 2080 2266 2335 2326 2267 2063 1859 1661 1612 1658 1696 1584 1309 1360 1522
2 9 24 16 3 0 0 0 0 1 13 26 18 237 382 169 6 0 0 0 0 1 2 4 35 855 899 956 1077 1005 853 773 884 972 1202 1159 1201 1140 992 794 811 779 610 644 774 766 683 730 582 604 686 837 771 665 981 1416 1574 1658 1847 2009 2142 2137 2197 2305 2264 2238 2193 2212 2219 2198 2133 2062 2207 2152 2143 2184 2117 1994 1830 1682 1661 1648 1696 1642 1225 1212
6 5 16 19 3 0 0 0 0 0 14 190 316 367 471 546 363 0 0 0 22 5 16 508 453 600 728 897 1049 1023 951 843 829 908 924 1054 1160 1197 1051 951 1320 873 729 606 584 861 797 808 809 651 880 776 643 607 913 1153 1338 1446 1760 1915 2090 2162 2097 2052 2042 2011 1990 2048 2097 2077 1901 1811 1970 2072 1984 1963 2027 1975 1855 1928 1708 1551 1577 1636 1615 1582
0 0 0 16 2 0 5 0 0 324 642 703 685 689 685 692 666 499 118 0 12 0 1 364 640 499 636 915 1013 1018 945 950 857 910 848 893 1074 1148 1131 1100 1205 1011 874 669 416 673 936 1125 560 621 930 801 605 644 754 831 1000 1156 1398 1649 1652 2006 1950 1816 1724 1704 1781 1771 1738 1606 1590 1699 1696 1760 1835 1824 1747 1705 1628 1572 1581 1507 1395 1440 1480 1338
0 2 3 10 10 9 15 12 129 463 591 736 727 711 672 727 782 748 797 544 11 2 108 496 680 446 647 922 1022 1101 997 850 802 850 885 833 983 1064 1100 1119 1161 1194 936 859 584 607 1157 1216 995 656 684 842 728 573 453 613 476 609 879 1031 1023 1239 1630 1559 1523 1514 1539 1479 1548 1435 1402 1488 1478 1375 1314 1309 1436 1357 1321 1313 1384 1437 1442 1151 1092 1169
0 0 264 24 27 22 11 0 340 448 562 764 734 785 863 859 890 850 815 681 684 684 597 604 684 643 705 929 994 1100 936 1054 1077 1011 954 982 956 1021 1097 1123 1209 1192 1004 833 748 938 1099 660 952 874 738 669 470 426 377 378 477 669 817 904 1016 1072 1058 1132 1364 1545 1484 1402 1573 1407 1377 1315 1363 1279 1286 1293 1373 1200 811 557 801 1048 1202 1064 1184 1216
0 0 3 7 24 41 10 4 13 439 417 442 460 466 641 849 848 936 961 831 990 876 815 691 668 898 912 1006 938 1038 1190 1290 1230 1185 1158 1180 1174 1060 984 1039 1127 1136 1071 1002 1017 1220 1225 914 664 638 774 647 533 413 393 227 493 604 626 686 802 1002 1154 987 884 940 1526 1459 1453 1418 1322 1253 1284 1262 1359 1480 1538 1314 860 800 909 972 1070 1245 1416 1578
0 0 0 3 14 20 5 7 0 49 183 223 309 304 610 846 806 1126 1118 1082 1004 872 710 692 872 988 985 1011 1010 1126 1162 1224 1259 1254 1214 1241 1214 1246 1160 1054 1053 940 982 1050 1047 1255 1265 1144 1009 854 709 640 419 390 358 468 614 403 477 726 831 1084 1468 927 668 568 1388 1539 1429 1289 1258 1246 1200 1385 1564 1703 1688 1360 972 920 1035 1114 1190 1312 1495 1481
0 0 0 0 2 7 1 1 0 236 235 338 322 382 737 809 924 986 1133 1064 994 1147 1318 1315 1143 1001 968 980 1055 1030 996 1078 1202 1168 1007 1087 989 1046 1088 1069 996 942 1052 887 954 959 1216 1177 1279 1106 942 993 1004 963 876 817 840 701 644 713 883 1028 1251 1046 541 842 1459 1583 1491 1364 1264 1195 1160 1203 1694 1859 1778 1601 1421 1148 1062 1198 1330 1462 1450 1304
0 0 0 0 0 9 4 2 104 315 294 290 358 358 562 819 1030 942 830 863 1121 1515 1526 1456 1316 1173 1130 1097 1069 1026 988 991 913 870 822 847 905 824 759 805 922 935 926 907 812 800 974 1030 1255 1406 1189 1243 1239 1184 1039 1002 711 987 1204 1051 992 1085 1449 1678 1214 1056 1215 1444 1521 1471 1396 1288 1091 1032 1429 1821 1890 1773 1688 1458 1357 1390 1470 1431 1298 1189
0 0 0 0 0 0 1 2 35 324 271 316 334 287 240 409 729 911 818 880 937 1255 1513 1462 1349 1283 1291 1262 1185 1142 1058 952 883 881 902 921 1025 994 809 711 662 654 577 556 629 666 684 899 988 1199 1264 1287 1465 1491 1452 1504 1498 1590 1684 1611 1441 1354 1334 1498 1567 1454 1403 1520 1591 1559 1373 1142 981 828 1247 1690 1809 1752 1653 1593 1421 1324 1406 1457 1430 1326
0 0 0 0 0 0 36 141 2 91 130 71 137 173 172 217 204 376 821 962 877 936 1132 1311 1329 1076 1213 1169 1165 1127 1050 945 858 727 732 736 706 719 689 834 842 762 713 585 527 616 627 657 518 893 1128 1216 1218 1414 1470 1654 1711 1748 1734 1686 1704 1551 1467 1564 1668 1726 1698 1726 1667 1477 1313 1328 1294 1360 1248 1218 1598 1642 1632 1583 1524 1448 1325 1228 1226 1268
0 0 0 0 0 0 277 180 183 184 286 133 7 41 32 123 92 258 600 875 907 951 1027 1060 1122 1147 1094 1020 1027 1217 1121 970 836 745 637 593 578 585 510 511 511 614 671 737 752 670 840 878 631 648 820 836 919 1013 953 1237 1290 1440 1539 1598 1536 1504 1496 1545 1586 1602 1605 1582 1580 1493 1451 1543 1584 1638 1446 1395 1368 1478 1444 1443 1410 1348 1272 1243 1140 1088
0 0 0 0 0 0 0 0 0 0 17 0 0 0 118 283 137 545 423 511 738 853 919 932 898 964 940 1099 1163 1197 1124 826 649 663 545 524 526 335 279 222 203 193 199 205 417 712 764 717 703 683 662 813 850 818 764 957 1287 1354 1320 1344 1328 1403 1435 1542 1513 1395 1325 1306 1311 1342 1382 1410 1400 1447 1474 1358 1212 1107 1017 1067 1132 1052 1024 1021 1073 1091
0 0 0 0 0 0 0 0 0 0 58 2 0 63 317 307 259 274 399 316 579 551 547 647 572 673 843 780 861 953 758 599 602 523 377 342 188 75 51 25 6 47 171 286 328 580 861 849 705 697 696 645 605 940 841 1080 1141 1222 1354 1281 1269 1400 1490 1540 1571 1466 1376 1352 1355 1373 1404 1386 1195 1173 1140 1163 1260 1300 1173 1085 1022 988 923 850 796 801
52 2 0 11 0 83 76 0 5 49 198 312 380 346 225 417 1 33 112 439 572 512 345 345 488 774 824 898 952 762 657 731 595 509 348 354 198 58 18 1 249 346 403 417 437 533 630 761 821 764 741 716 686 688 804 904 1000 884 989 1118 984 1098 1294 1199 1137 1150 1165 1188 1137 1178 1100 935 941 960 987 944 931 802 633 535 491 504 477 458 447 455
7 14 138 203 116 249 279 299 241 369 475 534 626 465 389 215 28 7 580 686 701 430 414 360 419 579 636 907 770 573 674 741 718 562 416 347 160 10 3 116 264 328 262 309 286 252 257 351 471 530 574 598 673 683 652 675 669 628 638 723 649 666 776 844 730 662 534 488 437 426 305 325 294 292 666 594 520 230 264 350 674 375 406 353 296 287
84 117 34 320 256 263 258 60 90 118 354 719 603 391 516 286 329 634 680 656 512 380 328 291 401 472 460 398 445 528 564 573 574 530 435 318 191 155 86 174 239 264 342 336 317 245 236 247 270 285 308 329 377 423 467 520 553 534 574 613 496 544 420 114 331 114 189 277 296 318 318 305 277 261 264 294 278 352 358 364 370 377 340 338 264 343
58 220 216 278 460 294 173 122 102 646 833 829 657 574 890 772 707 833 759 660 624 554 473 380 374 385 507 481 588 601 602 583 493 352 383 287 220 207 204 186 185 217 206 237 231 210 176 184 205 245 254 314 350 409 430 416 450 462 424 358 337 356 46 285 266 116 89 141 184 231 242 216 214 226 232 268 278 284 269 265 245 250 179 175 126 131
255 530 354 370 429 395 349 554 784 892 965 1004 1016 924 929 823 789 818 797 567 523 545 528 486 404 467 613 616 564 540 199 354 410 284 370 271 233 211 162 43 37 0 25 38 0 0 0 0 0 38 156 268 323 351 351 354 362 417 415 374 378 307 232 221 148 0 0 0 79 99 130 183 197 209 239 266 226 234 224 204 198 136 41 2 0 0
497 502 526 666 772 800 825 885 899 933 956 990 1020 1093 1073 936 814 730 564 522 538 612 648 544 457 608 526 396 386 386 137 23 63 408 366 299 275 4 0 0 0 0 0 0 0 0 0 0 0 0 0 0 0 225 292 248 261 311 342 259 0 0 0 0 0 0 0 0 0 0 9 18 98 104 121 112 82 124 131 19 16 0 0 1 0 0
472 480 512 579 581 485 678 824 880 840 862 888 979 1120 1048 986 848 539 528 733 771 751 680 565 497 496 352 292 232 45 36 194 292 360 351 311 169 52 0 0 0 0 0 0 0 0 0 0 0 0 0 0 0 105 168 202 47 0 0 0 0 0 0 0 0 0 0 0 0 0 0 0 8 0 0 0 0 1 3 0 0 5 2 0 0 0
332 375 400 397 391 495 682 610 599 722 714 773 938 1019 932 858 828 747 710 848 885 770 712 628 450 355 289 213 120 174 38 0 141 86 276 218 0 20 4 0 0 0 0 0 0 0 0 0 0 0 0 0 0 0 54 164 136 0 0 0 0 0 0 0 0 0 0 0 0 0 0 3 5 0 0 0 0 0 0 0 0 0 0 0 0 0
371 444 520 494 494 408 416 428 502 514 492 611 833 929 854 735 663 568 629 772 834 833 699 644 531 316 284 237 237 231 206 199 136 12 114 82 21 17 14 1 0 0 0 0 0 0 0 0 0 0 0 0 0 0 0 41 85 92 15 0 0 0 0 0 0 0 0 0 0 0 18 0 0 0 0 0 0 0 0 0 0 0 0 0 0 0
230 445 427 416 373 397 387 399 319 208 411 664 906 981 882 714 628 683 671 684 705 799 738 641 520 411 364 349 293 242 69 52 34 8 44 76 41 7 8 5 0 0 0 0 0 0 0 0 0 0 0 0 0 0 0 0 36 0 0 0 0 0 0 2 0 0 0 0 0 0 0 0 0 0 0 0 0 44 20 24 24 26 24 0 0 0
84 430 389 343 455 469 356 298 288 411 441 557 796 939 953 775 638 646 677 655 671 759 791 629 579 498 417 376 273 220 140 230 176 54 0 0 0 0 0 0 0 0 0 0 0 0 0 0 0 0 0 0 0 0 0 0 0 0 0 0 0 0 0 0 0 0 0 0 0 0 0 0 0 0 0 0 0 0 0 9 39 11 0 0 0 0
Wind_Speed
nan nan nan nan nan nan nan nan nan nan 15 17 18 18 11 13 18 19 20 17 18 18 22 18 23 26 17 19 18 15 12 nan nan nan nan nan nan nan nan nan nan nan nan nan 4 7 9 8 4 3 4 5 5 5 6 6 7 8 7 7 8 10 10 10 10 11 12 12 13 13 14 16 17 17 18 19 21 20 20 22 23 23 23 22 21 22
nan nan nan nan nan nan nan nan nan nan 20 22 21 18 13 14 11 12 15 15 18 20 15 13 14 16 22 24 24 20 15 nan nan nan nan nan nan nan nan nan nan nan nan nan 4 7 9 7 6 2 2 4 4 5 5 6 6 6 6 5 6 7 8 9 10 10 10 14 14 13 16 16 17 18 18 21 23 21 20 20 21 22 21 21 22 22
nan nan nan nan nan nan nan nan nan 29 23 23 21 17 20 18 19 19 19 17 18 22 19 21 17 14 11 14 16 19 19 16 17 14 9 nan nan nan nan nan nan nan nan nan 5 7 7 10 8 4 3 4 5 5 5 5 4 5 5 5 5 6 7 9 9 8 10 15 15 13 15 15 18 19 20 21 23 23 22 21 20 19 20 22 22 21
nan nan nan nan nan nan nan nan nan nan 27 27 24 18 11 13 13 11 13 18 17 19 23 22 18 19 21 20 16 15 17 16 16 17 17 nan nan nan nan nan nan nan nan nan 6 6 8 8 6 5 4 2 2 3 4 5 4 5 6 6 5 6 6 8 9 9 11 15 16 14 13 14 16 19 21 22 23 24 23 22 21 18 18 20 22 22
nan nan nan nan nan nan nan nan nan nan 28 21 15 12 15 13 9 13 12 17 15 19 23 27 28 26 23 19 16 15 16 16 17 21 19 18 17 14 nan nan nan nan nan nan 7 6 8 8 6 6 5 3 2 3 4 4 5 6 6 7 6 6 6 8 10 10 11 14 16 16 15 17 18 20 19 22 24 24 22 20 18 18 17 18 19 20
nan nan nan nan nan nan nan nan nan nan nan 22 14 9 8 11 14 21 20 18 8 8 9 20 26 20 19 15 12 16 17 13 16 18 20 20 19 16 nan nan nan nan nan nan 9 8 9 8 6 6 6 4 2 3 4 4 5 5 6 7 7 6 7 9 11 10 11 13 14 14 14 16 18 17 17 19 21 22 20 18 18 17 17 18 18 18
nan nan nan nan nan nan nan nan nan nan nan 22 21 13 16 14 16 19 18 15 6 1 3 7 nan nan 23 15 13 16 14 12 15 16 18 20 19 16 nan nan nan nan nan nan 10 10 11 9 8 7 6 5 3 2 3 3 3 4 6 6 7 7 8 10 11 10 11 13 14 14 15 17 18 17 20 19 19 18 19 17 16 17 17 17 18 17
nan nan nan nan nan nan nan nan nan nan nan nan 20 20 16 16 14 15 17 11 11 12 10 5 16 20 21 16 15 17 15 13 13 12 15 18 18 16 15 nan nan nan nan nan 9 10 12 10 9 8 6 5 4 3 2 2 2 4 6 6 7 8 9 11 11 10 10 11 13 13 15 17 18 17 18 17 16 15 15 15 15 16 17 17 17 15
nan nan nan nan nan nan nan nan nan nan nan 20 18 18 11 11 13 17 17 15 13 13 8 1 9 17 19 22 21 20 15 12 7 7 9 14 17 15 15 12 nan nan nan nan 10 10 12 10 8 9 6 5 6 4 2 2 2 3 4 5 6 8 9 11 11 11 10 10 10 11 13 16 18 17 16 16 14 13 12 12 14 13 15 15 15 13
nan nan nan nan nan nan nan nan nan 23 25 22 16 16 15 14 16 20 19 21 14 12 6 2 2 10 17 19 18 18 12 5 1 4 7 9 14 16 15 14 nan nan nan nan 13 12 13 11 9 8 7 6 6 4 2 2 1 2 3 4 5 7 8 10 11 11 11 10 11 11 13 13 16 16 15 14 12 11 11 10 11 12 12 12 11 12
nan nan nan nan nan nan nan nan nan 13 19 22 27 29 26 25 26 27 26 23 20 14 nan 0 2 5 nan 12 7 11 1 3 6 10 8 8 13 17 17 nan nan nan nan nan 15 14 15 13 10 9 8 6 6 5 5 3 1 1 3 4 4 6 7 8 10 11 11 12 12 12 13 13 14 15 13 12 12 10 10 9 10 10 11 9 9 9
nan nan nan nan nan nan nan nan nan 22 22 21 21 21 24 26 27 30 26 27 21 nan 14 6 2 1 nan nan 8 6 19 12 7 4 4 8 10 15 19 16 nan nan nan nan 16 15 16 14 11 9 9 8 6 6 6 4 2 2 2 3 3 5 6 8 9 10 11 12 14 14 14 14 14 14 13 10 9 9 8 8 8 9 8 9 7 7
nan nan nan nan nan nan nan nan nan 27 27 28 25 24 24 21 23 nan 17 17 nan nan 18 13 8 10 nan nan 9 3 8 9 5 4 4 8 11 11 17 17 nan nan nan nan 16 16 16 15 12 9 10 10 8 7 7 4 3 3 2 2 3 5 5 6 8 9 11 12 14 14 14 14 15 14 13 11 9 8 6 6 6 6 6 7 6 7
nan nan nan nan nan nan nan nan nan nan 26 25 21 24 26 22 20 13 nan nan 19 21 19 14 8 8 9 14 7 3 2 3 6 5 7 8 9 9 15 20 nan nan nan 15 15 15 14 14 13 10 11 11 9 7 8 6 5 5 3 2 3 4 4 5 7 8 10 11 13 15 14 14 14 13 12 11 9 8 6 5 4 4 4 5 6 6
nan nan nan nan nan nan nan nan nan nan nan nan 25 20 18 16 16 nan nan nan 9 15 18 13 10 5 nan nan 16 12 7 4 7 6 10 9 7 8 16 23 nan nan nan 15 15 14 13 13 13 11 13 14 11 7 8 8 7 6 5 3 2 4 5 5 6 7 9 10 12 15 14 14 14 12 12 11 9 8 6 5 4 4 3 3 4 4
nan nan nan nan nan nan nan nan nan nan nan nan nan nan nan nan nan nan nan nan 11 16 17 13 8 8 4 7 12 13 9 11 11 8 10 10 10 11 15 22 24 nan nan 15 15 14 14 14 13 13 14 14 13 9 9 8 8 8 5 3 3 2 3 4 6 7 8 9 11 13 13 14 14 14 13 12 11 9 7 5 4 3 2 2 2 2
nan nan nan nan nan nan nan nan nan nan nan nan nan nan nan nan 28 24 23 18 17 nan 14 11 12 11 9 10 17 17 16 14 13 11 10 10 12 14 13 18 26 24 nan 17 16 15 15 14 13 13 14 14 14 11 9 9 8 8 7 5 4 4 5 5 6 7 7 8 10 11 12 14 14 13 13 12 12 10 10 8 6 4 3 3 2 2
nan nan nan nan nan nan nan nan nan nan nan nan nan nan nan 25 26 26 24 22 20 nan nan 13 9 11 12 10 14 17 19 15 13 11 11 12 13 14 14 17 24 30 nan nan 15 16 14 14 15 14 13 14 14 13 11 10 10 10 9 7 5 5 4 4 6 7 8 8 9 10 11 12 13 13 13 14 12 12 11 11 9 8 7 5 4 4
nan nan nan nan nan nan nan nan nan nan nan nan nan nan nan nan 23 24 nan nan nan nan nan nan 13 11 7 5 10 11 14 13 12 11 12 12 12 13 16 17 25 34 37 nan 24 18 16 16 16 15 14 13 14 15 13 11 11 11 11 10 7 5 5 4 5 7 8 9 10 9 9 10 13 15 15 15 15 14 12 11 11 10 8 7 7 7
nan nan nan nan nan nan nan nan nan nan nan nan nan nan nan nan 20 nan nan 18 nan nan nan nan nan nan nan 5 7 7 10 12 13 12 12 13 13 13 16 20 25 31 37 34 nan 19 18 16 15 16 16 14 14 16 15 13 13 11 11 11 10 10 9 8 7 7 7 8 9 10 11 12 12 13 14 14 15 14 12 12 12 11 11 9 10 10
nan nan nan nan nan nan nan nan nan nan nan nan nan nan nan nan nan nan nan nan nan nan nan 15 nan nan 7 8 7 5 8 8 11 12 14 14 14 14 16 21 27 29 28 29 nan 30 25 16 15 17 17 15 16 17 17 15 13 13 13 12 12 11 10 10 9 9 9 9 10 10 10 10 11 10 12 12 12 13 13 13 13 12 11 13 11 12
nan nan nan nan nan nan nan nan nan nan nan nan nan nan nan nan 20 nan 13 nan nan nan nan nan nan nan 8 8 4 5 8 12 12 12 13 14 15 17 20 22 25 30 33 35 36 32 30 32 18 17 18 17 16 17 16 16 16 15 14 13 13 14 12 12 11 12 11 11 11 10 9 10 11 10 12 9 10 10 11 11 11 11 11 11 9 10
nan nan nan nan nan nan nan nan nan nan nan nan nan nan nan nan nan nan nan nan nan 21 23 18 16 12 11 7 4 5 9 10 11 12 11 12 15 15 15 22 25 30 36 41 41 34 32 nan 34 22 16 15 15 16 18 18 17 16 15 15 14 14 13 13 14 14 15 13 13 11 10 10 10 12 11 10 10 9 9 9 8 9 8 7 7 7
30 nan nan nan nan nan nan nan nan nan nan nan nan nan nan nan nan nan nan nan nan 17 nan nan nan 13 14 12 8 8 8 9 9 10 10 10 12 12 13 16 24 30 37 40 40 37 36 32 28 33 18 17 16 18 19 18 17 17 17 16 15 15 15 15 16 15 16 16 14 12 12 11 11 11 11 11 11 9 10 8 8 7 6 6 6 6
nan nan nan nan nan nan nan nan nan nan nan nan nan nan nan nan nan nan nan nan nan nan nan nan nan nan 16 13 11 12 11 10 9 7 9 9 8 8 9 13 20 29 35 38 40 37 36 32 26 23 23 19 18 18 20 20 19 18 18 18 17 16 17 16 18 17 16 16 17 15 14 12 12 12 11 11 11 9 9 9 8 8 6 9 14 13
nan nan nan nan nan nan nan nan nan nan nan nan nan nan nan nan nan nan nan nan nan nan nan nan nan 14 16 14 11 12 11 12 9 9 7 6 7 8 8 9 14 19 25 32 38 39 35 33 28 27 23 21 21 22 25 25 24 23 22 21 20 19 19 19 19 18 17 16 17 17 16 15 14 13 12 11 11 9 8 8 8 11 20 17 16 12
nan nan nan nan nan nan nan nan nan nan nan nan nan 38 39 35 nan nan nan nan nan nan nan nan nan 14 14 11 10 9 7 10 12 11 8 5 6 9 10 11 11 14 17 20 29 37 40 37 32 26 28 30 34 32 25 27 27 26 27 25 23 22 21 21 21 19 18 18 17 19 17 17 15 14 13 12 11 11 10 9 15 21 12 13 16 16
nan nan nan nan nan nan nan nan nan nan nan 34 36 36 37 38 32 nan nan nan nan nan nan 14 15 17 6 11 10 8 3 3 6 8 7 6 7 8 10 12 13 15 16 18 19 25 37 38 33 31 30 32 34 35 31 25 25 25 26 24 24 23 23 23 24 22 20 20 19 19 17 18 18 16 14 13 12 12 12 11 20 15 15 17 17 15
nan nan nan nan nan nan nan nan nan 38 35 32 35 36 40 36 38 33 28 nan nan nan nan 11 13 13 11 10 11 9 7 3 5 5 5 7 8 8 9 11 11 12 13 16 17 16 24 32 32 28 30 35 39 38 33 30 26 30 30 28 29 26 24 25 26 25 24 23 23 24 24 26 26 25 23 22 20 18 17 17 21 16 15 16 17 18
nan nan nan nan nan nan nan nan 43 38 36 40 43 44 39 36 33 33 31 29 nan nan 18 21 22 22 16 14 15 14 14 11 9 8 8 8 7 7 8 9 10 10 10 11 14 15 16 21 27 30 32 34 36 36 34 29 25 29 31 29 28 27 25 26 27 28 28 27 26 27 28 29 28 28 27 25 23 22 22 23 21 19 17 18 18 17
nan nan 39 nan nan nan nan nan 36 34 35 38 44 47 46 38 36 35 30 31 30 30 30 30 30 28 23 22 22 20 18 17 16 13 11 10 9 8 9 10 10 12 14 14 14 15 15 17 21 26 29 28 31 34 31 27 26 33 33 30 29 28 29 28 28 28 31 31 29 27 29 30 29 30 30 27 26 26 26 26 24 23 22 23 21 20
nan nan nan nan nan nan nan nan nan 32 37 39 43 48 46 43 40 36 31 27 21 19 25 30 29 25 22 26 25 21 18 17 14 13 13 14 14 12 10 9 10 11 12 14 13 12 12 15 17 22 26 26 27 31 32 28 26 32 32 31 31 29 31 28 25 27 33 34 33 29 27 28 30 31 31 30 29 29 28 28 28 27 26 26 26 25
nan nan nan nan nan nan nan nan nan nan 37 38 43 43 39 38 37 35 37 37 28 20 23 23 20 20 22 25 25 19 19 19 18 17 18 19 19 17 14 11 12 10 9 11 13 11 10 9 11 15 21 24 24 26 27 26 26 27 30 32 32 34 35 32 29 28 32 36 35 32 32 32 30 32 31 30 31 31 31 30 30 30 29 29 28 28
nan nan nan nan nan nan nan nan nan 40 38 30 31 38 35 33 35 39 37 37 38 30 23 23 25 23 23 25 24 20 22 21 20 21 21 20 21 22 21 19 16 15 13 12 13 13 13 12 12 12 14 18 23 27 30 29 28 27 30 35 37 38 38 35 32 31 31 33 32 30 31 35 35 30 29 30 31 31 31 29 30 31 30 30 30 31
nan nan nan nan nan nan nan nan 42 38 33 29 33 36 36 33 35 36 40 47 43 39 36 35 34 33 30 29 27 26 28 30 30 29 27 25 24 23 22 22 21 20 18 17 16 16 16 16 17 17 19 18 19 22 25 28 26 23 26 31 38 42 42 37 35 35 33 30 28 29 32 35 35 29 26 30 32 32 32 31 30 31 31 31 32 32
nan nan nan nan nan nan nan nan nan 34 35 34 32 35 43 36 36 38 42 48 48 42 36 36 39 39 34 33 28 26 28 32 34 33 31 29 27 24 24 23 22 21 20 17 18 18 18 18 20 22 22 22 22 20 20 21 21 21 21 23 29 35 37 36 34 34 33 30 27 29 32 33 33 31 27 30 35 36 35 32 32 33 33 34 34 33
nan nan nan nan nan nan nan 43 nan nan 40 nan 39 38 39 35 32 30 31 38 44 41 39 35 40 42 37 34 30 28 27 30 33 31 31 30 29 26 25 23 22 23 23 21 20 20 19 20 21 20 18 19 21 19 20 20 22 22 21 20 21 24 28 32 33 33 34 33 32 32 32 33 35 34 31 32 39 40 38 36 35 35 35 37 36 35
nan nan nan nan nan nan 32 40 45 44 39 38 nan nan nan 30 nan 26 32 31 39 42 40 38 39 40 37 32 28 21 24 29 27 22 23 26 25 25 24 23 22 23 23 23 21 21 21 20 20 18 19 20 22 21 19 19 17 18 20 20 19 20 22 25 28 30 32 33 33 33 33 36 39 39 33 35 39 40 39 38 37 38 39 39 38 38
nan nan nan nan nan nan nan nan nan nan nan nan nan nan 41 38 32 27 32 33 36 39 39 35 38 37 33 26 25 24 26 24 22 21 21 23 24 24 25 24 24 24 24 23 23 24 23 22 21 21 22 23 24 21 20 17 16 20 22 21 20 20 22 23 24 25 26 28 30 33 35 36 38 39 37 40 41 40 38 38 38 38 39 40 41 41
nan nan nan nan nan nan nan nan nan nan nan nan nan nan 45 44 36 32 28 30 35 39 37 37 38 37 33 29 29 31 28 24 25 24 24 26 27 nan nan nan nan nan 27 27 27 26 26 25 26 26 26 26 22 21 23 21 20 22 22 21 21 23 24 24 23 23 25 27 29 31 31 28 29 31 32 33 35 38 41 40 40 39 39 40 42 43
nan nan nan nan nan nan nan nan nan nan 36 39 41 41 44 44 nan nan 27 30 33 36 36 37 32 32 31 30 29 31 29 28 27 28 28 29 31 nan nan nan 28 29 30 30 29 29 29 29 29 30 30 28 27 27 27 25 26 27 27 27 26 26 25 26 26 26 28 30 29 29 28 27 27 30 31 29 30 30 31 31 33 33 34 36 38 42
nan nan 22 23 23 18 17 22 23 27 30 32 32 33 36 41 nan nan 33 34 36 36 33 34 36 32 30 31 27 29 33 36 35 31 29 29 31 nan nan 32 32 33 32 31 32 32 33 33 34 34 34 32 33 33 31 30 30 30 31 31 30 27 26 28 29 28 28 29 29 29 31 32 31 32 31 29 29 29 27 26 28 29 29 28 31 36
nan 27 nan 22 18 19 21 nan nan 25 26 30 28 29 33 33 33 36 42 43 42 41 39 38 35 31 34 34 29 28 32 36 33 35 33 29 28 30 nan 33 34 34 35 36 36 35 36 37 38 38 37 36 37 36 36 37 36 34 34 34 32 30 31 31 31 31 30 30 30 32 33 32 33 32 29 28 29 33 32 31 32 30 28 28 28 27
nan 26 23 20 17 17 19 19 19 21 20 28 29 26 23 23 25 31 37 40 41 42 40 40 38 34 32 33 35 36 33 32 32 35 35 29 27 29 30 32 34 34 35 36 37 38 39 39 39 40 39 39 40 40 39 40 40 38 38 36 32 33 nan 33 33 33 nan 34 34 33 32 31 31 29 28 27 27 29 29 28 28 26 25 25 26 25
19 20 18 20 17 16 15 14 17 18 22 24 27 26 25 23 24 24 29 31 35 36 35 39 39 38 35 32 33 33 35 32 30 25 26 24 25 27 29 nan nan nan nan nan nan nan nan nan nan nan 40 40 41 41 41 41 43 43 42 37 35 35 36 36 36 nan nan nan nan nan 32 31 30 28 26 25 26 27 27 26 24 24 nan nan nan nan
16 18 19 24 19 20 20 15 14 20 24 26 26 25 25 26 26 25 25 28 30 30 30 34 34 34 34 31 32 29 28 nan nan 17 20 23 27 nan nan nan nan nan nan nan nan nan nan nan nan nan nan nan nan 40 40 41 42 44 41 39 nan nan nan nan nan nan nan nan nan nan nan nan nan 28 28 28 nan 26 25 nan nan nan nan nan nan nan
8 11 15 18 13 19 15 15 18 19 22 24 24 26 28 27 25 24 25 24 25 28 30 30 31 30 29 29 32 nan nan 28 25 19 20 24 27 nan nan nan nan nan nan nan nan nan nan nan nan nan nan nan nan 37 38 39 nan nan nan nan nan nan nan nan nan nan nan nan nan nan nan nan nan nan nan nan nan nan nan nan nan nan nan nan nan nan
10 12 19 15 16 15 12 12 16 18 19 19 21 22 22 23 24 24 24 23 25 29 30 30 29 29 27 28 30 34 nan nan 26 nan 23 24 nan nan nan nan nan nan nan nan nan nan nan nan nan nan nan nan nan nan nan 37 36 nan nan nan nan nan nan nan nan nan nan nan nan nan nan nan nan nan nan nan nan nan nan nan nan nan nan nan nan nan
6 11 11 10 14 14 14 13 14 18 20 20 20 20 19 20 21 23 24 24 25 30 31 31 28 26 26 25 26 29 28 25 23 nan 26 nan nan nan nan nan nan nan nan nan nan nan nan nan nan nan nan nan nan nan nan nan nan nan nan nan nan nan nan nan nan nan nan nan nan nan nan nan nan nan nan nan nan nan nan nan nan nan nan nan nan nan
9 10 9 15 15 9 9 8 11 18 15 17 18 16 17 18 20 22 23 25 25 26 27 30 28 27 26 24 22 22 nan nan nan nan nan nan nan nan nan nan nan nan nan nan nan nan nan nan nan nan nan nan nan nan nan nan nan nan nan nan nan nan nan nan nan nan nan nan nan nan nan nan nan nan nan nan nan nan nan nan nan nan nan nan nan nan
nan 5 8 9 8 4 3 7 9 15 14 12 14 15 16 16 19 23 24 24 24 24 24 28 28 28 28 26 23 24 22 22 23 nan nan nan nan nan nan nan nan nan nan nan nan nan nan nan nan nan nan nan nan nan nan nan nan nan nan nan nan nan nan nan nan nan nan nan nan nan nan nan nan nan nan nan nan nan nan nan nan nan nan nan nan nan
Wind_Direction
nan nan nan nan nan nan nan nan nan nan 214 234 231 238 252 234 222 222 225 236 242 227 223 212 188 182 193 193 187 185 186 nan nan nan nan nan nan nan nan nan nan nan nan nan 307 281 289 315 335 350 350 28 61 58 39 25 29 41 50 54 53 64 63 60 55 58 70 85 94 99 94 103 111 116 119 118 121 124 123 125 127 124 120 118 115 119
nan nan nan nan nan nan nan nan nan nan 223 231 228 237 235 228 239 233 236 237 238 235 231 229 236 200 186 175 174 180 200 nan nan nan nan nan nan nan nan nan nan nan nan nan 238 272 288 304 317 326 341 356 22 73 53 40 40 48 47 52 61 68 66 63 55 54 81 103 99 95 97 110 116 123 123 122 122 122 124 128 129 122 118 115 115 118
nan nan nan nan nan nan nan nan nan 218 223 222 221 221 232 215 224 221 230 235 237 232 227 217 227 221 196 179 174 191 198 199 195 198 219 nan nan nan nan nan nan nan nan nan 258 277 286 302 313 320 328 359 7 32 59 65 49 52 69 82 87 85 73 70 67 64 95 114 113 107 108 109 118 120 121 122 123 124 125 124 124 121 119 117 117 119
nan nan nan nan nan nan nan nan nan nan 216 215 210 215 221 240 244 227 218 248 244 225 228 225 227 208 199 191 185 202 208 201 195 200 195 nan nan nan nan nan nan nan nan nan 263 283 287 289 299 299 300 322 356 40 78 73 44 69 85 94 103 101 89 72 74 77 101 115 114 120 112 113 116 119 124 126 127 128 127 125 124 121 114 113 117 117
nan nan nan nan nan nan nan nan nan nan 221 211 214 200 219 239 218 226 245 252 255 221 232 230 217 203 203 197 191 204 210 212 203 200 197 200 205 207 nan nan nan nan nan nan 260 270 276 279 293 297 294 297 337 32 52 63 54 72 62 81 93 107 92 79 78 82 106 120 129 130 128 128 137 139 130 130 128 124 123 124 121 111 109 106 106 108
nan nan nan nan nan nan nan nan nan nan nan 208 189 209 218 243 245 241 267 271 257 219 207 244 215 207 207 199 194 208 211 223 219 211 198 197 207 208 nan nan nan nan nan nan 273 271 272 274 271 272 285 298 316 18 51 51 55 62 67 76 97 112 106 83 78 85 112 122 126 129 126 124 128 131 124 118 116 120 119 113 116 112 108 109 113 113
nan nan nan nan nan nan nan nan nan nan nan 220 191 196 233 244 251 278 284 270 273 308 13 205 nan nan 212 207 203 212 217 217 218 220 203 200 205 202 nan nan nan nan nan nan 265 269 271 268 273 276 283 292 313 8 42 53 54 54 68 71 89 106 108 95 84 90 121 133 129 123 121 125 125 126 123 121 119 116 118 120 116 113 117 118 117 119
nan nan nan nan nan nan nan nan nan nan nan nan 208 235 249 244 275 296 299 282 242 224 233 210 206 216 210 195 208 222 222 214 216 218 213 203 205 202 207 nan nan nan nan nan 274 281 278 280 283 284 279 281 304 312 357 43 47 45 63 72 84 111 111 105 95 96 118 134 129 126 131 131 131 127 124 120 118 117 118 117 112 114 116 119 120 121
nan nan nan nan nan nan nan nan nan nan nan 197 230 261 286 298 279 284 271 253 254 254 250 279 197 202 197 198 218 229 222 207 208 240 233 212 208 203 206 217 nan nan nan nan 259 275 274 276 276 272 265 258 279 288 333 18 55 61 73 73 90 106 116 114 104 101 120 142 136 135 139 138 133 136 130 126 122 117 113 108 110 109 109 111 114 117
nan nan nan nan nan nan nan nan nan 190 197 192 237 239 227 234 256 269 251 248 242 229 246 342 260 206 194 205 229 226 215 191 242 283 269 238 218 209 208 215 nan nan nan nan 262 269 267 266 265 269 258 253 265 263 248 246 201 102 98 75 75 99 114 120 113 110 124 146 152 152 146 145 140 143 139 132 124 117 114 101 101 102 102 103 110 108
nan nan nan nan nan nan nan nan nan 180 200 216 229 227 215 215 216 208 216 225 229 216 nan 236 5 209 nan 200 237 258 133 24 251 231 239 252 225 209 206 nan nan nan nan nan 251 263 264 264 264 261 268 258 255 246 247 227 211 153 102 83 73 92 116 123 121 120 126 144 154 158 154 153 148 147 146 135 130 123 120 104 102 103 98 105 99 96
nan nan nan nan nan nan nan nan nan 187 218 231 213 221 218 208 216 214 206 200 217 nan 195 227 330 195 nan nan 187 174 207 218 238 254 271 277 262 217 208 209 nan nan nan nan 245 253 259 258 259 258 267 272 262 253 253 224 211 190 134 112 88 105 107 123 129 130 126 142 152 159 160 158 154 154 151 138 131 123 114 108 107 107 108 108 105 99
nan nan nan nan nan nan nan nan nan 207 207 210 211 205 218 207 215 nan 210 206 nan nan 194 201 240 195 nan nan 200 185 190 221 251 248 278 292 288 250 215 209 nan nan nan nan 242 247 254 260 261 252 260 267 257 254 258 248 230 221 186 122 96 99 103 111 131 135 133 141 150 159 163 164 163 161 159 151 152 141 131 124 121 118 104 106 107 94
nan nan nan nan nan nan nan nan nan nan 202 209 205 200 213 208 206 213 nan nan 191 184 194 201 221 172 190 175 195 226 100 231 265 269 271 290 315 281 233 213 nan nan nan 244 249 247 250 255 256 249 250 257 251 256 258 248 230 224 206 162 114 110 119 122 129 140 145 142 151 161 166 170 172 168 170 163 164 160 152 145 132 117 104 96 90 85
nan nan nan nan nan nan nan nan nan nan nan nan 199 204 207 222 221 nan nan nan 183 184 191 205 216 174 nan nan 185 197 188 232 235 262 279 278 288 269 230 214 nan nan nan 241 246 248 247 250 256 245 242 250 250 258 253 237 228 226 222 193 158 149 134 137 130 147 149 153 158 165 168 176 179 179 182 177 178 182 178 163 156 132 117 99 90 73
nan nan nan nan nan nan nan nan nan nan nan nan nan nan nan nan nan nan nan nan 200 199 205 196 190 204 242 195 187 191 214 257 259 252 259 278 267 260 232 215 211 nan nan 230 243 249 246 241 246 237 238 249 249 258 244 238 226 225 222 213 197 172 149 148 149 149 150 157 168 172 174 180 185 187 192 194 190 195 198 196 186 163 151 119 127 95
nan nan nan nan nan nan nan nan nan nan nan nan nan nan nan nan 240 235 227 216 217 nan 202 210 190 195 195 207 201 208 229 246 267 274 274 272 273 270 252 229 216 213 nan 217 236 244 243 239 233 234 242 246 251 250 247 236 227 225 224 220 215 202 184 169 167 165 162 162 174 178 181 187 191 194 201 204 201 201 201 208 203 208 203 202 217 218
nan nan nan nan nan nan nan nan nan nan nan nan nan nan nan 208 229 239 236 221 223 nan nan 222 213 212 220 215 217 222 233 232 256 279 287 280 272 278 267 245 224 216 nan nan 235 238 245 238 232 234 239 250 255 256 248 238 225 218 221 223 230 223 218 191 190 184 176 170 171 181 190 193 196 199 202 209 212 212 212 209 213 213 221 223 232 247
nan nan nan nan nan nan nan nan nan nan nan nan nan nan nan nan 216 217 nan nan nan nan nan nan 219 219 256 225 237 252 265 255 254 262 274 282 281 280 271 255 232 222 210 nan 197 234 241 233 230 237 242 248 255 257 249 237 227 222 216 218 220 231 239 239 218 200 190 184 176 180 188 199 202 204 208 210 213 217 219 222 224 228 236 239 241 253
nan nan nan nan nan nan nan nan nan nan nan nan nan nan nan nan 224 nan nan 234 nan nan nan nan nan nan nan 234 282 292 286 286 278 273 287 291 287 279 269 253 237 225 211 199 nan 211 236 239 242 242 247 246 250 252 249 242 230 235 230 224 216 211 218 227 229 222 212 198 190 186 192 195 202 207 212 216 221 226 227 230 235 236 243 253 255 261
nan nan nan nan nan nan nan nan nan nan nan nan nan nan nan nan nan nan nan nan nan nan nan 225 nan nan 198 235 247 280 284 269 262 256 256 264 271 274 266 248 235 233 225 202 nan 203 206 231 246 246 247 246 241 243 247 243 241 238 232 232 226 224 218 224 228 231 221 217 205 206 200 199 200 205 212 216 221 226 229 235 241 245 249 249 256 263
nan nan nan nan nan nan nan nan nan nan nan nan nan nan nan nan 221 nan 213 nan nan nan nan nan nan nan 189 230 236 285 282 279 276 278 265 264 267 266 242 232 220 221 222 214 206 215 212 190 210 248 243 239 241 247 251 244 242 240 241 239 232 225 220 220 224 227 228 224 220 219 210 205 205 206 212 217 221 224 228 230 239 247 247 256 261 267
nan nan nan nan nan nan nan nan nan nan nan nan nan nan nan nan nan nan nan nan nan 225 242 235 225 197 211 213 225 242 257 270 280 284 276 266 268 273 247 217 221 219 226 218 209 205 215 nan 191 195 249 243 250 253 256 246 242 244 245 246 238 235 230 225 223 227 228 230 229 226 221 214 212 215 219 219 223 226 230 231 237 246 251 256 257 263
179 nan nan nan nan nan nan nan nan nan nan nan nan nan nan nan nan nan nan nan nan 234 nan nan nan 213 207 218 224 241 243 248 255 283 277 270 266 277 277 233 229 234 230 222 215 208 211 214 203 191 204 251 236 243 255 250 244 243 244 248 245 247 243 236 228 232 232 232 231 231 230 225 219 224 226 225 224 226 227 234 240 248 258 257 266 277
nan nan nan nan nan nan nan nan nan nan nan nan nan nan nan nan nan nan nan nan nan nan nan nan nan nan 215 223 227 245 268 273 277 268 282 279 275 284 273 241 236 239 236 229 222 220 219 219 213 195 189 226 246 242 244 245 242 240 241 241 245 246 248 244 235 239 241 240 237 233 234 233 231 230 230 231 230 230 229 232 241 249 261 243 226 215
nan nan nan nan nan nan nan nan nan nan nan nan nan nan nan nan nan nan nan nan nan nan nan nan nan 211 212 221 231 243 265 271 266 277 269 283 284 282 266 257 251 245 242 235 231 230 225 216 210 200 201 221 238 243 241 238 233 235 236 239 238 242 242 246 242 243 245 246 243 241 241 236 234 235 236 236 238 242 242 239 246 244 238 241 255 238
nan nan nan nan nan nan nan nan nan nan nan nan nan 199 191 193 nan nan nan nan nan nan nan nan nan 239 223 223 226 237 275 295 277 272 297 308 282 260 253 259 256 255 261 250 240 234 228 219 214 210 216 224 220 206 230 238 236 234 234 236 237 238 242 246 248 246 249 248 246 244 247 246 242 239 239 241 243 245 249 254 253 245 245 246 251 246
nan nan nan nan nan nan nan nan nan nan nan 196 207 205 203 209 210 nan nan nan nan nan nan 230 256 267 252 244 235 242 247 270 267 273 287 307 314 295 274 267 262 261 262 267 263 238 234 229 224 215 218 232 235 224 200 228 241 241 235 239 241 239 240 243 249 249 247 249 248 244 249 248 243 243 239 236 237 238 247 254 261 269 257 248 258 261
nan nan nan nan nan nan nan nan nan 193 200 198 200 203 203 205 210 211 208 nan nan nan nan 236 271 261 250 252 246 249 253 311 355 338 299 290 283 276 275 266 263 267 268 274 283 264 242 231 231 232 232 235 235 231 213 196 224 233 232 233 233 232 237 243 248 247 247 246 245 242 241 242 240 237 234 231 231 233 236 238 253 275 268 263 260 256
nan nan nan nan nan nan nan nan 188 204 201 201 196 193 190 192 194 203 213 213 nan nan 220 245 234 225 228 234 235 237 234 235 243 252 271 281 276 269 266 262 256 257 267 274 278 280 262 244 239 242 239 239 240 236 221 201 211 235 235 232 237 240 235 238 244 247 245 248 248 247 244 243 242 243 240 240 237 234 235 238 246 257 258 257 257 256
nan nan 197 nan nan nan nan nan 189 205 206 201 190 188 187 185 193 199 211 218 226 229 237 234 232 228 212 224 226 227 230 236 244 251 264 268 265 255 253 259 268 272 268 267 273 280 270 259 253 252 254 250 248 240 233 217 207 232 233 233 235 235 234 238 253 258 253 244 237 240 248 246 246 247 247 243 241 238 239 243 244 245 246 248 249 249
nan nan nan nan nan nan nan nan nan 191 210 204 189 185 187 191 195 192 208 204 211 243 246 238 236 231 226 235 232 228 230 236 237 236 238 245 249 253 256 254 278 282 269 258 253 263 269 269 262 261 262 265 260 246 235 232 218 230 237 236 238 237 237 236 242 245 249 248 243 232 234 246 249 247 249 246 245 241 238 242 246 247 248 250 251 249
nan nan nan nan nan nan nan nan nan nan 197 200 187 183 185 194 197 196 201 202 203 202 229 246 242 245 249 248 245 232 236 232 230 225 227 228 236 248 254 255 262 261 263 254 246 238 253 254 260 265 264 267 264 245 239 246 247 241 241 238 233 236 235 236 239 240 243 246 242 236 232 228 238 249 250 250 250 247 244 244 246 246 246 248 249 249
nan nan nan nan nan nan nan nan nan 201 207 199 190 185 189 198 201 210 199 197 196 205 209 217 232 237 245 250 257 253 245 243 240 226 223 229 237 242 245 249 254 268 274 261 252 250 245 247 244 243 248 252 254 248 241 239 248 251 247 241 233 233 235 234 238 244 246 247 243 236 239 248 238 225 244 253 253 254 253 250 251 251 250 250 248 251
nan nan nan nan nan nan nan nan 208 205 204 198 189 191 193 196 204 210 210 205 202 202 210 219 220 221 219 228 239 244 244 243 242 241 232 229 235 238 240 243 251 255 257 259 255 244 239 242 247 249 243 232 234 239 244 242 241 251 253 246 237 232 233 234 239 240 242 246 244 235 244 255 255 242 233 246 253 256 257 256 255 254 254 253 252 252
nan nan nan nan nan nan nan nan nan 207 203 198 193 202 197 199 204 206 203 204 205 207 210 221 226 225 223 235 234 241 246 243 238 234 238 236 235 238 240 239 242 246 247 243 250 244 237 238 244 239 233 225 220 216 217 226 233 246 254 252 246 239 236 236 238 240 243 250 251 249 249 255 256 254 252 256 258 258 257 255 255 257 258 258 253 251
nan nan nan nan nan nan nan 222 nan nan 207 nan 205 200 202 204 205 213 205 204 206 205 216 218 227 233 228 233 232 231 233 235 233 227 229 239 243 242 247 247 244 246 248 245 242 243 247 251 246 241 230 232 240 232 216 216 228 227 233 248 249 245 242 241 242 242 245 249 252 250 253 255 252 246 244 252 260 259 257 257 255 254 257 259 258 257
nan nan nan nan nan nan 226 220 217 216 215 209 nan nan nan 209 nan 214 224 212 211 214 217 219 219 231 242 244 242 226 233 235 232 229 235 242 247 251 249 247 245 246 252 255 252 249 247 248 252 245 235 231 233 234 234 228 236 246 246 243 243 245 246 245 242 243 246 248 250 253 256 259 258 252 246 249 255 256 255 255 254 254 257 260 262 259
nan nan nan nan nan nan nan nan nan nan nan nan nan nan 205 210 206 216 222 220 219 223 224 224 227 215 215 221 233 233 240 245 249 247 242 244 241 242 244 243 247 249 251 253 256 256 249 247 249 250 244 243 244 241 245 244 241 243 243 243 244 244 244 240 239 240 243 243 243 247 252 256 258 257 251 247 249 250 251 251 253 254 255 258 260 261
nan nan nan nan nan nan nan nan nan nan nan nan nan nan 212 211 216 229 226 222 225 231 238 234 230 228 222 217 210 209 217 231 238 239 242 242 241 nan nan nan nan nan 247 250 249 248 249 249 252 249 247 247 245 245 244 245 251 252 248 242 244 247 246 245 244 242 245 247 246 248 250 251 259 263 262 260 256 251 251 253 253 255 258 259 259 262
nan nan nan nan nan nan nan nan nan nan 216 216 214 213 214 220 nan nan 229 223 228 239 246 255 249 239 237 235 230 229 220 214 226 233 236 239 243 nan nan nan 238 243 246 247 247 247 246 246 247 251 252 248 247 247 249 248 249 250 250 251 247 245 246 255 256 254 257 256 252 251 255 257 262 266 267 269 267 255 247 249 259 261 263 264 262 261
nan nan 231 234 231 240 243 237 220 215 217 213 209 219 222 228 nan nan 226 228 234 238 241 250 262 258 250 247 243 243 239 230 234 231 232 232 238 nan nan 242 240 239 239 239 241 241 244 247 247 247 248 248 250 250 249 248 247 246 250 252 251 245 247 252 253 252 252 251 252 259 262 261 260 266 269 270 271 267 261 259 263 265 269 274 272 265
nan 232 nan 237 234 239 237 nan nan 217 212 206 202 220 223 231 229 232 235 233 237 241 243 244 252 259 259 257 256 250 247 245 234 230 226 231 235 238 nan 239 237 238 239 239 237 234 238 242 244 245 245 246 247 248 250 253 252 248 247 247 246 246 247 247 248 248 249 252 259 265 268 268 269 269 270 271 273 276 276 272 271 272 272 275 275 268
nan 228 232 235 239 245 237 235 226 222 213 205 220 227 216 224 227 232 237 237 236 241 243 244 244 248 249 258 260 253 246 247 237 223 223 224 230 231 232 233 235 237 235 233 236 239 241 242 243 245 244 244 245 246 247 251 254 254 254 252 252 253 nan 253 254 255 nan 259 264 266 267 268 268 268 268 270 271 274 276 273 271 272 274 271 271 270
216 224 232 242 227 233 232 233 224 221 217 213 220 223 220 219 225 231 239 238 242 239 241 246 247 245 247 255 257 260 258 251 239 219 224 223 229 233 235 nan nan nan nan nan nan nan nan nan nan nan 243 243 243 242 244 248 253 254 253 252 255 257 257 256 258 nan nan nan nan nan 264 265 266 267 266 266 268 269 269 270 271 272 nan nan nan nan
227 238 238 240 237 244 235 237 236 224 219 214 217 223 227 227 228 234 239 243 235 237 240 252 252 251 249 247 253 244 252 nan nan 223 222 221 224 nan nan nan nan nan nan nan nan nan nan nan nan nan nan nan nan 242 242 241 245 249 249 250 nan nan nan nan nan nan nan nan nan nan nan nan nan 263 263 263 nan 264 267 nan nan nan nan nan nan nan
222 222 224 244 246 242 243 229 236 237 226 223 223 225 230 234 236 241 246 244 245 244 248 252 257 258 257 254 252 nan nan 252 249 231 220 223 228 nan nan nan nan nan nan nan nan nan nan nan nan nan nan nan nan 245 246 246 nan nan nan nan nan nan nan nan nan nan nan nan nan nan nan nan nan nan nan nan nan nan nan nan nan nan nan nan nan nan
202 216 233 229 231 248 249 242 246 241 238 233 236 238 238 238 238 238 242 247 249 246 245 249 254 255 257 259 260 259 nan nan 253 nan 238 236 nan nan nan nan nan nan nan nan nan nan nan nan nan nan nan nan nan nan nan 249 250 nan nan nan nan nan nan nan nan nan nan nan nan nan nan nan nan nan nan nan nan nan nan nan nan nan nan nan nan nan
225 215 228 229 241 232 235 234 241 239 230 223 226 235 243 247 246 242 241 244 248 252 251 247 247 254 259 265 267 269 269 261 260 nan 259 nan nan nan nan nan nan nan nan nan nan nan nan nan nan nan nan nan nan nan nan nan nan nan nan nan nan nan nan nan nan nan nan nan nan nan nan nan nan nan nan nan nan nan nan nan nan nan nan nan nan nan
230 233 246 250 258 261 272 274 258 250 236 225 223 229 240 244 247 249 248 249 251 255 259 261 256 254 255 255 260 262 nan nan nan nan nan nan nan nan nan nan nan nan nan nan nan nan nan nan nan nan nan nan nan nan nan nan nan nan nan nan nan nan nan nan nan nan nan nan nan nan nan nan nan nan nan nan nan nan nan nan nan nan nan nan nan nan
nan 305 276 273 290 304 306 295 270 269 254 234 230 222 229 235 242 246 248 253 254 256 259 265 264 257 256 254 255 259 258 256 253 nan nan nan nan nan nan nan nan nan nan nan nan nan nan nan nan nan nan nan nan nan nan nan nan nan nan nan nan nan nan nan nan nan nan nan nan nan nan nan nan nan nan nan nan nan nan nan nan nan nan nan nan nan